Regional Weather Roundup
Issued by NWS Wakefield, VA

Home | Current Version | Previous Version | Text Only | Print | Product List | Glossary On
Versions: 1 2 3 4 5 6 7 8 9 10 11 12 13 14 15 16 17 18 19 20 21 22 23 24 25 26 27
000
ASUS41 KAKQ 171515
RWRAKQ

REGIONAL WEATHER ROUNDUP
NATIONAL WEATHER SERVICE WAKEFIELD VA
1100 AM EDT TUE OCT 17 2017

Note: "fair" indicates few or no clouds below 12,000 feet with no
significant weather and/or obstructions to visibility. * = Denotes
station may not report precipitation (e.g., rain,snow,etc.),
thunder or fog.

VAZ042-051-052>054-056-171600-
NORTHERN VIRGINIA

CITY           SKY/WX    TMP DP  RH WIND       PRES   REMARKS
WASH NATIONAL  SUNNY     55  33  43 NE14      30.40F
DULLES         SUNNY     54  36  50 NW6       30.40S
FORT BELVOIR   SUNNY     55  33  42 N6        30.39
QUANTICO       SUNNY     56  37  49 NE8       30.41S
FREDERICKSBRG* SUNNY     54  36  49 N8        30.39S
STAFFORD*      SUNNY     54  36  50 N10       30.43F
WARRENTON      SUNNY     56  31  37 NE8       30.39F
CULPEPER*      SUNNY     56  33  42 NE6       30.41S
MANASSAS*      SUNNY     55  36  48 N8        30.40F
LEESBURG*      SUNNY     54  37  54 CALM      30.41S
WINCHESTER     SUNNY     52  34  50 N6        30.39S
FRONT ROYAL*   SUNNY     52  36  54 CALM      30.39S
LURAY*         SUNNY     52  37  58 CALM      30.40S
$$

VAZ048-049-060>072-079>083-171600-
CENTRAL AND SOUTH CENTRAL VIRGINIA

CITY           SKY/WX    TMP DP  RH WIND       PRES   REMARKS
RICHMOND       MOSUNNY   56  33  42 N16       30.38S
CHESTERFIELD*  NOT AVBL
PETERSBURG*    SUNNY     55  35  46 N12       30.38S
HANOVER        SUNNY     55  34  45 NE6       30.39F
TAPPAHANNOCK*  SUNNY     56  29  35 N9G16     30.38S
QUINTON*       FAIR      54  36  51 N6        30.37S
CHARLOTTSVILLE SUNNY     56  36  47 VRB3      30.39F
GORDONSVILLE*  SUNNY     54  37  52 NE8       30.39F
ORANGE*        SUNNY     54  36  50 N6        30.40S
LOUISA*        SUNNY     54  34  47 NE9       30.39F
BUMPASS*       FAIR      53  35  49 N6        30.39S
FARMVILLE*     SUNNY     56  38  51 NE9       30.39S
CREWE*         FAIR      54  37  52 N7        30.38S
FORT PICKETT*  FAIR      54  38  53 NE9       30.38S
CHASE CITY*    FAIR      56  37  47 N7        30.39R
CLARKSVILLE*   FAIR      55  34  44 N9        30.38R
SOUTH HILL*    SUNNY     54  43  67 N6        30.43R
LAWRENCEVILLE* FAIR      55  41  60 N5        30.37S
EMPORIA*       SUNNY     54  43  66 N8        30.38S
$$

VAZ088>098-171600-
SOUTHEAST VIRGINIA

CITY           SKY/WX    TMP DP  RH WIND       PRES   REMARKS
NORFOLK        MOSUNNY   58  41  53 N18G25    30.33S
VIRGINIA BEACH MOSUNNY   56  39  53 N15G23    30.32S
NORFOLK NAVAL  MOSUNNY   57  41  55 N20G26    30.36R
WEST POINT*    MOSUNNY   55  39  54 NW6       30.39R
SALUDA*        FAIR      54  40  61 N13       30.37R
NEWPORT NEWS   SUNNY     56  41  57 NE10      30.36R
LANGLEY AFB    MOSUNNY   57  41  55 NE14      30.34F
FORT EUSTIS    SUNNY     59  40  48 N8        30.34
WILLIAMSBURG*  SUNNY     59  45  58 NE5       30.37S
HR EXEC AP*    NOT AVBL
FRANKLIN*      MOSUNNY   56  41  56 NE9       30.36R HAZE
US460-WAKEFLD  SUNNY     56  42  59 N7        30.36R
$$

VAZ020-022-025-037-045-171600-
WEST CENTRAL AND SOUTHWEST VIRGINIA

CITY           SKY/WX    TMP DP  RH WIND       PRES   REMARKS
STAUNTON*      SUNNY     50  36  58 NE3       30.41F
WAYNESBORO*    SUNNY     50  37  61 NW6       30.39F
HOT SPRINGS VA SUNNY     44  28  53 N6        30.37S
LYNCHBURG      SUNNY     54  38  54 E6        30.39S
DANVILLE       SUNNY     56  38  50 NE12      30.40R
SOUTH BOSTON*  FAIR      56  32  40 N9        30.40R
MARTINSVILLE   SUNNY     56  41  57 E7        30.41F
ROANOKE        SUNNY     53  40  61 CALM      30.41F
BLACKSBURG     SUNNY     53  37  53 CALM      30.41S
DUBLIN*        SUNNY     52  39  61 N3        30.41R
MARION*        SUNNY     52  32  46 E5        30.42R
HILLSVILLE*    SUNNY     48  31  51 CALM      30.37S
RICHLANDS*     FAIR      49  36  59 E6        30.40R
WISE*          SUNNY     50  37  62 NE8       30.40S
ABINGDON*      SUNNY     53  40  60 E8        30.39S
$$

MDZ021>025-VAZ099-100-171600-
SOUTHERN MARYLAND AND THE DELMARVA PENINSULA

CITY           SKY/WX    TMP DP  RH WIND       PRES   REMARKS
PATUXENT RIVER MOSUNNY   54  37  52 N15       30.37S
BAY BRIDGE APT SUNNY     52  36  54 N9        30.38F
LEONARDTOWN    NOT AVBL
DOVER          SUNNY     52  36  54 N9        30.36
GEORGETOWN     SUNNY     54  36  50 NE9       30.36S
EASTON         SUNNY     54  32  43 N10       30.41S
CAMBRIDGE      SUNNY     52  34  50 N10G18    30.37S
SALISBURY      SUNNY     54  40  59 N9        30.35S
OCEAN CITY     MOSUNNY   54  42  64 NE13      30.35R
WALLOPS ISLAND SUNNY     54  41  61 NE10      30.35R
ACCOMACK*      SUNNY     54  39  57 N7G16     30.35S
$$

NCZ012>017-030>032-171600-
NORTH CENTRAL AND EASTERN NORTH CAROLINA

CITY           SKY/WX    TMP DP  RH WIND       PRES   REMARKS
ROANOKE RAPIDS FAIR      55  45  67 NE8       30.36R
RALEIGH        MOSUNNY   56  36  47 NE14G22   30.37R
ELIZABETH CITY CLOUDY    58  44  60 N17       30.32R
AHOSKIE*       SUNNY     55  43  63 N10G16    30.35R
EDENTON*       CLOUDY    58  45  61 N10       30.33S
CURRITUCK*     CLOUDY    57  42  55 N14G20    30.33R
KILL DEVIL HLS CLOUDY    60  44  56 N9G21     30.28R
MANTEO         CLOUDY   N/A N/A N/A NE20      30.29S
CAPE HATTERAS  MOSUNNY   64  49  57 NE13G26   30.27R
TARBORO*       NOT AVBL
GOLDSBORO      CLOUDY    57  45  63 N10       30.33R
WASHINGTON     MOSUNNY   58  44  60 NE13G18   30.33R
GREENVILLE     CLOUDY    55  46  71 N13       30.34S
NEW BERN       CLOUDY    58  46  64 N14G20    30.32R
WILMINGTON     PTSUNNY   57  43  59 N14G22    30.30R
$$

VAZ048-171600-
ELSEWHERE

CITY           SKY/WX    TMP DP  RH WIND       PRES   REMARKS
HARRISBURG PA  SUNNY     52  35  52 W5        30.37F
BALTIMORE      MOSUNNY   53  33  46 N8        30.38F
ANNAPOLIS      SUNNY     53  40  61 N9G20     30.39S
ANDREWS AFB    SUNNY     52  32  45 N10       30.38
PHILADELPHIA   SUNNY     51  32  48 N8        30.37S
HENDERSON NC   SUNNY     53  36  52 NE9G18    30.38R
GREENSBORO     MOSUNNY   56  40  55 NE9       30.38R
ROCKY MOUNT    SUNNY     58  45  62 N12       30.36R
$$

VAZ100-171600-
MARINE

STATION/POSITION TIME  TEMP    WIND        PRES    WAVE   SWELL
                       AIR SEA DIR/SP/G            HT/PER HT/PER
                 (UTC) (F)     (DEG/KT/KT) (MB)    (FT/S) (FT/S)
BRANDYWINE LGT   1442   50      40/ 14/ 16 1028.3R
CAPE MAY NJ      1448   52 63  360/  8/ 14 1027.3R
LEWES DE         1448   52 61   20/ 11/ 14 1027.7R
15NM E FENWICK I 1450   54 68  360/ 17/ 21 1027.0R   5/ 6   2/11
OCEAN-CITY-INLET 1448   53 67   50/  5/ 11 1027.8R
WACHAPREAGUE VA  1448   52 62   20/  7/ 13 1027.4R
THOMAS POINT MD  1500   50 67   20/ 13/ 14   N/A
GOOSES REEF MD   1450   52      60/ 10/ 16 1031.7
COVE POINT MD    1448   50      30/ 14/ 17 1029.3R
SOLOMONS ISLAND  1442   51 70  360/ 11/ 14 1028.2S
BISHOPS HEAD MD  1448   51 58   20/  9/ 14 1028.6R
PINEY POINT MD   1448           50/  8/ 11   N/A
POTOMAC MD       1450   52      40/ 14/ 17 1028.0
CAMBRIDGE MD     1448   52 67              1029.3S
LEWISETTA VA     1448   53 62   40/  9/ 15 1028.5R
RAPPAHANNOCK LGT 1448           10/ 19/ 24 1028.4R
STINGRAY PT      1450   53      30/ 17/ 23 1028.3
YORK RVR RNG VA  1448   54      30/ 20/ 25 1028.2R
YORKTOWN VA      1448   54 70   20/ 12/ 19 1027.6R
JAMESTOWN VA     1450           40/ 10/ 14   N/A
DOMINION TERM VA 1448   55      30/ 12/ 17 1027.8R
KIPTOPEKE VA     1448      67   30/  9/ 14   N/A
CAPE HENRY VA    1448   53     360/ 14/ 20   N/A
WILLOUBY STN VA  1442   55     360/ 18/ 21 1027.3R
S CRANEY ISL VA  1448   56      10/ 19/ 22 1027.2R
CAPE HENRY BUOY  1430      71                N/A     6/ 7   2/11
1ST LANDING BUOY 1450   55                 1027.3
CAPE CHARLES BUO 1421      70                N/A     5/ 6   2/11
64NM E OF VA BCH 1450   59 67  360/ 17/ 21 1025.4R   8/ 8   3/11
DUCK PIER NC     1448   58 68   10/ 19/ 26 1025.4R
44100 DUCK FRF   1435      71                N/A     8/ 8   2/11
44056 DUCK FRF   1430      71                N/A     7/ 7   2/11
OREGON INLET NC  1442   60 68   20/ 16/ 22 1025.1R
HATTERAS NC      1448   62 70   30/ 18/ 22 1024.6R
DIAMOND SHLS NC  1450   65 81   20/ 23/ 29 1023.3R   9/ 8   3/10
CAPE LOOKOUT NC  1500   63      10/ 17/ 23 1024.2R
$$




USA.gov is the U.S. government's official web portal to all federal, state and local government web resources and services.